Ask Your Question

Adi's profile - karma

Adi's karma change log

10 0 I have a patch for OpenCV, how can I do a contribution? ( 2017-12-24 02:51:39 -0500 )

10 0 I have a patch for OpenCV, how can I do a contribution? ( 2012-07-03 07:02:05 -0500 )

10 0 I have a patch for OpenCV, how can I do a contribution? ( 2012-07-03 07:50:06 -0500 )

10 0 Sobel derivatives in the 45 and 135 degree direction ( 2012-07-17 00:44:17 -0500 )

0 -10 Sobel derivatives in the 45 and 135 degree direction ( 2012-07-17 00:47:32 -0500 )

10 0 Sobel derivatives in the 45 and 135 degree direction ( 2012-07-17 00:47:44 -0500 )

10 0 Face lifting on iOS ( 2012-07-20 13:52:19 -0500 )

10 0 Sobel derivatives in the 45 and 135 degree direction ( 2012-07-22 03:19:34 -0500 )

10 0 Face lifting on iOS ( 2012-07-22 03:50:49 -0500 )

10 0 Face lifting on iOS ( 2012-07-22 09:38:15 -0500 )

10 0 Face lifting on iOS ( 2012-07-22 11:21:12 -0500 )

15 0 Sobel derivatives in the 45 and 135 degree direction ( 2012-07-23 04:26:46 -0500 )

0 -5 Sobel derivatives in the 45 and 135 degree direction ( 2012-07-23 04:26:49 -0500 )

15 0 3rd party and static libs : error LNK2019 with MSVC 2010 32 bits ( 2012-07-23 11:02:59 -0500 )

0 -5 3rd party and static libs : error LNK2019 with MSVC 2010 32 bits ( 2012-07-23 11:03:22 -0500 )

15 0 3rd party and static libs : error LNK2019 with MSVC 2010 32 bits ( 2012-07-23 11:03:23 -0500 )

10 0 Can I use cv::fitLine() to robustly find an intersection point? ( 2012-08-01 04:49:08 -0500 )

10 0 Can I use cv::fitLine() to robustly find an intersection point? ( 2012-08-01 09:10:53 -0500 )

10 0 good result or bad result for findHomography ( 2012-08-04 02:16:08 -0500 )

15 0 focal length and calibration ( 2012-08-05 14:52:31 -0500 )

10 0 focal length and calibration ( 2012-08-05 14:52:32 -0500 )

10 0 Building the video I/O part only? ( 2012-08-05 15:41:45 -0500 )

10 0 focal length and calibration ( 2012-08-05 15:41:58 -0500 )

10 0 focal length and calibration ( 2012-08-05 20:54:32 -0500 )

10 0 focal length and calibration ( 2012-08-06 01:28:17 -0500 )

10 0 Should add color profile embedder in next version ( 2012-08-06 03:12:59 -0500 )

10 0 focal length and calibration ( 2012-08-06 03:38:33 -0500 )

10 0 Should add color profile embedder in next version ( 2012-08-06 10:43:23 -0500 )

10 0 How can I license SURF ( 2012-08-07 02:54:36 -0500 )

10 0 How to open camera in VS2010 (MDI App) as a view ( 2012-08-10 01:25:40 -0500 )

10 0 Which machine vision camera vendors provide OpenCV support? ( 2012-08-13 08:23:00 -0500 )

10 0 good result or bad result for findHomography ( 2012-08-16 09:46:40 -0500 )

15 0 Which machine vision camera vendors provide OpenCV support? ( 2012-08-17 18:00:12 -0500 )

10 0 OpenCV2.4.2 and IPL_DEPTH_1U ( 2012-09-10 00:56:34 -0500 )

10 0 Reading FITS (Flexible Image Transport System) images ( 2012-09-17 10:50:19 -0500 )

10 0 Is it possible to get a pointer to two different frames in a video sequence at the same time with OpenCV? ( 2012-09-24 02:12:05 -0500 )

10 0 Is it possible to get a pointer to two different frames in a video sequence at the same time with OpenCV? ( 2012-09-24 02:25:07 -0500 )

15 0 Is it possible to get a pointer to two different frames in a video sequence at the same time with OpenCV? ( 2012-09-25 09:14:54 -0500 )

10 0 advice for costum font recognition ( 2012-10-04 03:54:56 -0500 )

10 0 advice for costum font recognition ( 2012-10-05 00:33:13 -0500 )

10 0 Can I use cv::fitLine() to robustly find an intersection point? ( 2012-10-31 03:21:14 -0500 )

10 0 Can I use cv::fitLine() to robustly find an intersection point? ( 2012-10-31 07:55:14 -0500 )

10 0 Can I use cv::fitLine() to robustly find an intersection point? ( 2012-10-31 07:55:26 -0500 )

0 -1 How to improve the running speed of the mubuy.com? ( 2012-11-13 04:18:22 -0500 )

0 0 How to improve the running speed of the mubuy.com? ( 2012-11-13 04:18:27 -0500 )

10 0 Do prebuilt binaries of the version 2.4.3 for windows use TBB and Eigen? ( 2012-11-13 05:55:12 -0500 )

0 -10 Do prebuilt binaries of the version 2.4.3 for windows use TBB and Eigen? ( 2012-11-13 05:55:14 -0500 )

15 0 Do prebuilt binaries of the version 2.4.3 for windows use TBB and Eigen? ( 2012-11-13 05:57:36 -0500 )

10 0 Do prebuilt binaries of the version 2.4.3 for windows use TBB and Eigen? ( 2012-11-13 05:57:41 -0500 )

10 0 Do prebuilt binaries of the version 2.4.3 for windows use TBB and Eigen? ( 2012-11-13 07:14:28 -0500 )

10 0 Do prebuilt binaries of the version 2.4.3 for windows use TBB and Eigen? ( 2012-11-16 03:43:09 -0500 )

10 0 good result or bad result for findHomography ( 2012-11-29 11:57:48 -0500 )

10 0 How to generate a random permutation? ( 2012-12-16 14:30:47 -0500 )

10 0 How to generate a random permutation? ( 2012-12-16 23:55:50 -0500 )

10 0 matchTemplate() with a mask ( 2013-01-07 09:09:05 -0500 )

10 0 Removing outliers from goodFeaturesToTrack using the x84 method ( 2013-01-11 02:32:43 -0500 )

15 0 Removing outliers from goodFeaturesToTrack using the x84 method ( 2013-01-13 04:07:33 -0500 )

10 0 I have a patch for OpenCV, how can I do a contribution? ( 2013-01-15 01:13:33 -0500 )

10 0 Sobel derivatives in the 45 and 135 degree direction ( 2013-02-13 06:56:51 -0500 )

5 0 Does Mat::create() reallocate when new size is smaller? ( 2013-03-10 03:05:59 -0500 )

10 0 Does Mat::create() reallocate when new size is smaller? ( 2013-03-12 02:57:15 -0500 )

10 0 Convert between depth values and depth types ( 2013-03-21 07:38:35 -0500 )

10 0 Convert between depth values and depth types ( 2013-03-21 07:56:55 -0500 )

10 0 focal length and calibration ( 2013-04-25 09:20:03 -0500 )

10 0 What is the meaning of cv::Point::cross()? ( 2013-05-07 10:40:15 -0500 )

15 0 How to get FeretDiameter? ( 2013-05-26 19:43:45 -0500 )

0 -15 How to get FeretDiameter? ( 2013-05-26 19:43:48 -0500 )

15 0 How to get FeretDiameter? ( 2013-05-26 19:43:50 -0500 )

10 0 How to get FeretDiameter? ( 2013-05-26 19:43:56 -0500 )

0 -10 How to get FeretDiameter? ( 2013-05-26 19:44:00 -0500 )

10 0 How to get FeretDiameter? ( 2013-05-26 19:44:01 -0500 )

0 -10 How to get FeretDiameter? ( 2013-05-26 19:44:01 -0500 )

10 0 How to get FeretDiameter? ( 2013-05-26 19:44:01 -0500 )

10 0 Face lifting on iOS ( 2013-06-19 09:23:06 -0500 )

10 0 Do prebuilt binaries of the version 2.4.3 for windows use TBB and Eigen? ( 2013-07-12 17:11:46 -0500 )

10 0 focal length and calibration ( 2013-07-29 08:25:05 -0500 )

0 -10 focal length and calibration ( 2013-07-29 08:25:07 -0500 )

10 0 focal length and calibration ( 2013-07-29 08:25:08 -0500 )

10 0 matchTemplate() with a mask ( 2013-12-01 13:40:30 -0500 )

10 0 Convert between depth values and depth types ( 2013-12-03 09:37:38 -0500 )

5 0 Convert between depth values and depth types ( 2013-12-11 08:29:45 -0500 )

10 0 Standard deviation from discrete values ( 2014-01-13 07:45:04 -0500 )

10 0 Standard deviation from discrete values ( 2014-01-14 00:39:03 -0500 )

15 0 Standard deviation from discrete values ( 2014-01-14 06:53:22 -0500 )

10 0 focal length and calibration ( 2014-01-15 23:31:20 -0500 )

5 0 Matrix Expression Comparison Operator ( 2014-01-28 06:36:22 -0500 )

10 0 Matrix Expression Comparison Operator ( 2014-01-28 07:32:45 -0500 )

10 0 Face lifting on iOS ( 2014-03-27 09:09:28 -0500 )

10 0 Why doesn't `cv::grabcut` use `EM::EM`? ( 2014-04-07 09:22:55 -0500 )

10 0 MLESAC instead of RANSAC ? ( 2014-05-05 04:41:52 -0500 )

0 0 Counting Coins iPhone practical? ( 2014-05-15 18:52:00 -0500 )

5 0 What is TAPI? ( 2014-07-10 08:20:08 -0500 )

10 0 What is TAPI? ( 2014-07-10 09:13:00 -0500 )

10 0 What is TAPI? ( 2014-07-10 10:43:14 -0500 )

0 -10 What is TAPI? ( 2014-07-10 10:43:16 -0500 )

10 0 What is TAPI? ( 2014-07-15 02:40:50 -0500 )

10 0 What is TAPI? ( 2014-08-19 05:08:10 -0500 )

5 0 Is it Possible to Create a Continuous Image? ( 2014-09-02 07:31:19 -0500 )

10 0 Up and Down Sampling wihtout Gaussian Blur ( 2014-09-20 04:31:36 -0500 )

10 0 Inpainting Methods ( 2015-01-15 17:18:02 -0500 )